IBE06YG LEMD-LIRF

Flight info

Callsign IBE06YG
Flight time 1h 52m
Altitude 36000
Route PINAR4N PINAR DCT SEGRE DCT BRITO DCT PISUS DCT PONEN N870 BCN DCT DIPES DCT TOSNU DCT LAPIT DCT OSPOK DCT NOLVI DCT ORKUM DCT ELSAG DCT ALG DCT ROMPO DCT RUXOP DCT BATOX DCT TINTO L5 VALMA VALMA3A
Aircraft A359/H-SDE2E3GHIJ1J3J4J5LM1ORWXY/LB1D1

Departure

Time 2026-05-01 08:21
Airport Adolfo Suárez Madrid–Barajas Airport (LEMD)

Arrival

Time 2026-05-01 10:13
Airport Rome–Fiumicino Leonardo da Vinci International Airport (LIRF)
Time Latitude Longitude Altitude Speed Heading
2026-05-01 07:33 40.49468 -3.56864 1968 ft 0 kts 89°
2026-05-01 08:07 40.49468 -3.56838 1981 ft 4 kts 89°
2026-05-01 08:08 40.49468 -3.56847 1978 ft 4 kts 89°
2026-05-01 08:08 40.49468 -3.56851 1982 ft 0 kts 89°
2026-05-01 08:10 40.49468 -3.56885 1978 ft 4 kts 89°
2026-05-01 08:11 40.49467 -3.56949 1979 ft 4 kts 94°
2026-05-01 08:11 40.49485 -3.56998 1983 ft 6 kts 161°
2026-05-01 08:12 40.49530 -3.57004 1983 ft 5 kts 180°
2026-05-01 08:12 40.49530 -3.57003 1984 ft 0 kts 180°
2026-05-01 08:15 40.49500 -3.57003 1985 ft 8 kts 180°
2026-05-01 08:15 40.49350 -3.57002 1981 ft 11 kts 181°
2026-05-01 08:15 40.49297 -3.57047 1984 ft 8 kts 243°
2026-05-01 08:16 40.49288 -3.57121 1986 ft 9 kts 268°
2026-05-01 08:16 40.49271 -3.57201 1988 ft 10 kts 233°
2026-05-01 08:16 40.49212 -3.57235 1991 ft 8 kts 201°
2026-05-01 08:16 40.49181 -3.57289 1993 ft 7 kts 259°
2026-05-01 08:17 40.49181 -3.57325 1991 ft 0 kts 271°
2026-05-01 08:18 40.49181 -3.57329 1991 ft 1 kts 271°
2026-05-01 08:19 40.49218 -3.57441 1992 ft 10 kts 332°
2026-05-01 08:19 40.49295 -3.57452 1990 ft 3 kts 360°
2026-05-01 08:20 40.49298 -3.57452 1990 ft 5 kts 360°
2026-05-01 08:20 40.49557 -3.57453 1991 ft 69 kts 360°
2026-05-01 08:20 40.50235 -3.57458 1995 ft 124 kts 360°
2026-05-01 08:20 40.51266 -3.57466 2008 ft 171 kts
2026-05-01 08:21 40.52470 -3.57472 2615 ft 168 kts
2026-05-01 08:21 40.53652 -3.57475 3213 ft 175 kts
2026-05-01 08:21 40.54881 -3.57447 3657 ft 180 kts
2026-05-01 08:21 40.56164 -3.57115 3881 ft 197 kts 18°
2026-05-01 08:22 40.57506 -3.56551 4200 ft 209 kts 19°
2026-05-01 08:22 40.58949 -3.55977 4447 ft 224 kts 17°
2026-05-01 08:22 40.60490 -3.55408 4802 ft 235 kts 16°
2026-05-01 08:22 40.62085 -3.54827 5302 ft 240 kts 16°
2026-05-01 08:23 40.63718 -3.54308 5823 ft 244 kts
2026-05-01 08:23 40.65418 -3.54071 6368 ft 248 kts
2026-05-01 08:23 40.67153 -3.53922 6893 ft 251 kts
2026-05-01 08:23 40.68903 -3.53729 7403 ft 254 kts
2026-05-01 08:24 40.70548 -3.52885 7895 ft 258 kts 37°
2026-05-01 08:24 40.71795 -3.51126 8187 ft 271 kts 56°
2026-05-01 08:24 40.72878 -3.49010 8466 ft 285 kts 58°
2026-05-01 08:24 40.73969 -3.46831 8900 ft 292 kts 57°
2026-05-01 08:25 40.75108 -3.44587 9422 ft 297 kts 57°
2026-05-01 08:25 40.76288 -3.42287 9975 ft 301 kts 57°
2026-05-01 08:25 40.77484 -3.39966 10328 ft 312 kts 57°
2026-05-01 08:25 40.78730 -3.37552 10574 ft 325 kts 56°
2026-05-01 08:26 40.80030 -3.35040 10828 ft 338 kts 56°
2026-05-01 08:26 40.81359 -3.32471 11046 ft 349 kts 56°
2026-05-01 08:26 40.82771 -3.29740 11282 ft 361 kts 56°
2026-05-01 08:26 40.84194 -3.26980 11648 ft 366 kts 56°
2026-05-01 08:27 40.85419 -3.24074 12065 ft 369 kts 69°
2026-05-01 08:27 40.86199 -3.20806 12551 ft 370 kts 76°
2026-05-01 08:27 40.86835 -3.17540 12996 ft 372 kts 77°
2026-05-01 08:27 40.87475 -3.14222 13446 ft 374 kts 76°
2026-05-01 08:28 40.88125 -3.10887 13927 ft 376 kts 76°
2026-05-01 08:28 40.88781 -3.07527 14344 ft 378 kts 76°
2026-05-01 08:28 40.89442 -3.04154 14747 ft 380 kts 76°
2026-05-01 08:28 40.90109 -3.00755 15156 ft 382 kts 76°
2026-05-01 08:29 40.90775 -2.97342 15563 ft 384 kts 76°
2026-05-01 08:29 40.91446 -2.93914 15963 ft 387 kts 76°
2026-05-01 08:29 40.92120 -2.90464 16376 ft 389 kts 76°
2026-05-01 08:29 40.92794 -2.87002 16785 ft 390 kts 76°
2026-05-01 08:30 40.93473 -2.83516 17182 ft 393 kts 76°
2026-05-01 08:30 40.94155 -2.80005 17573 ft 395 kts 76°
2026-05-01 08:30 40.94838 -2.76485 17974 ft 397 kts 76°
2026-05-01 08:30 40.95526 -2.72931 18356 ft 400 kts 76°
2026-05-01 08:31 40.96215 -2.69367 18703 ft 402 kts 76°
2026-05-01 08:31 40.96908 -2.65778 19025 ft 404 kts 76°
2026-05-01 08:31 40.97605 -2.62154 19349 ft 407 kts 76°
2026-05-01 08:31 40.98306 -2.58513 19664 ft 409 kts 76°
2026-05-01 08:32 40.99013 -2.54849 19974 ft 412 kts 77°
2026-05-01 08:32 40.99718 -2.51163 20277 ft 414 kts 77°
2026-05-01 08:32 41.00424 -2.47453 20590 ft 417 kts 77°
2026-05-01 08:32 41.01131 -2.43726 20905 ft 419 kts 77°
2026-05-01 08:33 41.01841 -2.39977 21206 ft 421 kts 77°
2026-05-01 08:33 41.02557 -2.36200 21505 ft 424 kts 77°
2026-05-01 08:33 41.03279 -2.32407 21797 ft 426 kts 77°
2026-05-01 08:33 41.04003 -2.28585 22110 ft 429 kts 77°
2026-05-01 08:34 41.04719 -2.24796 22398 ft 431 kts 77°
2026-05-01 08:34 41.05447 -2.20933 22680 ft 434 kts 77°
2026-05-01 08:34 41.06179 -2.17045 22954 ft 436 kts 78°
2026-05-01 08:34 41.06914 -2.13133 23220 ft 439 kts 78°
2026-05-01 08:35 41.07651 -2.09205 23484 ft 441 kts 78°
2026-05-01 08:35 41.08395 -2.05245 23758 ft 443 kts 78°
2026-05-01 08:35 41.09138 -2.01275 23987 ft 445 kts 78°
2026-05-01 08:35 41.09881 -1.97280 24237 ft 447 kts 78°
2026-05-01 08:36 41.10623 -1.93270 24477 ft 448 kts 78°
2026-05-01 08:36 41.11366 -1.89253 24716 ft 450 kts 78°
2026-05-01 08:36 41.12110 -1.85222 24945 ft 451 kts 78°
2026-05-01 08:36 41.12857 -1.81169 25174 ft 453 kts 78°
2026-05-01 08:37 41.13605 -1.77102 25401 ft 455 kts 78°
2026-05-01 08:37 41.14353 -1.73024 25635 ft 456 kts 78°
2026-05-01 08:37 41.15106 -1.68920 25875 ft 458 kts 78°
2026-05-01 08:37 41.15858 -1.64807 26120 ft 460 kts 78°
2026-05-01 08:38 41.16609 -1.60686 26337 ft 461 kts 78°
2026-05-01 08:38 41.17364 -1.56538 26587 ft 463 kts 78°
2026-05-01 08:38 41.18121 -1.52371 26834 ft 465 kts 78°
2026-05-01 08:38 41.18878 -1.48194 27075 ft 466 kts 78°
2026-05-01 08:39 41.19637 -1.43997 27311 ft 469 kts 78°
2026-05-01 08:39 41.20396 -1.39782 27569 ft 471 kts 78°
2026-05-01 08:39 41.21161 -1.35542 27815 ft 473 kts 78°
2026-05-01 08:39 41.21925 -1.31294 28074 ft 475 kts 78°
2026-05-01 08:40 41.23464 -1.22723 28600 ft 479 kts 78°
2026-05-01 08:40 41.24234 -1.18415 28868 ft 481 kts 78°
2026-05-01 08:40 41.25007 -1.14077 29129 ft 483 kts 78°
2026-05-01 08:41 41.25781 -1.09726 29384 ft 485 kts 78°
2026-05-01 08:41 41.26556 -1.05351 29639 ft 487 kts 78°
2026-05-01 08:41 41.27335 -1.00950 29921 ft 490 kts 78°
2026-05-01 08:41 41.28114 -0.96535 30197 ft 492 kts 78°
2026-05-01 08:42 41.28895 -0.92099 30439 ft 494 kts 78°
2026-05-01 08:42 41.29678 -0.87644 30720 ft 495 kts 78°
2026-05-01 08:42 41.30462 -0.83175 31009 ft 496 kts 78°
2026-05-01 08:42 41.31244 -0.78701 31322 ft 497 kts 78°
2026-05-01 08:43 41.32026 -0.74218 31621 ft 498 kts 78°
2026-05-01 08:43 41.32808 -0.69728 31906 ft 499 kts 78°
2026-05-01 08:43 41.33589 -0.65226 32177 ft 500 kts 78°
2026-05-01 08:43 41.34370 -0.60710 32453 ft 501 kts 78°
2026-05-01 08:44 41.35051 -0.56172 32702 ft 501 kts 83°
2026-05-01 08:44 41.35318 -0.51554 32972 ft 501 kts 90°
2026-05-01 08:44 41.35377 -0.46916 33219 ft 501 kts 91°
2026-05-01 08:44 41.35370 -0.42271 33458 ft 502 kts 91°
2026-05-01 08:45 41.35331 -0.37676 33706 ft 503 kts 92°
2026-05-01 08:45 41.35278 -0.33034 34070 ft 501 kts 92°
2026-05-01 08:45 41.35224 -0.28399 34412 ft 500 kts 92°
2026-05-01 08:45 41.35173 -0.23785 34675 ft 499 kts 92°
2026-05-01 08:46 41.35125 -0.19161 34933 ft 499 kts 92°
2026-05-01 08:46 41.35078 -0.14550 35190 ft 499 kts 91°
2026-05-01 08:46 41.35033 -0.09931 35465 ft 498 kts 92°
2026-05-01 08:46 41.35002 -0.06879 35648 ft 498 kts 91°
2026-05-01 08:47 41.34954 -0.02270 35910 ft 498 kts 92°
2026-05-01 08:47 41.34905 0.02328 36156 ft 498 kts 92°
2026-05-01 08:47 41.34801 0.11537 36214 ft 496 kts 92°
2026-05-01 08:48 41.34689 0.20699 36222 ft 495 kts 92°
2026-05-01 08:48 41.34576 0.29868 36224 ft 496 kts 92°
2026-05-01 08:49 41.34447 0.39045 36224 ft 496 kts 92°
2026-05-01 08:49 41.34310 0.48214 36222 ft 496 kts 92°
2026-05-01 08:50 41.34168 0.57390 36229 ft 496 kts 92°
2026-05-01 08:50 41.34024 0.66568 36226 ft 496 kts 92°
2026-05-01 08:51 41.33865 0.75751 36223 ft 496 kts 92°
2026-05-01 08:51 41.33699 0.84929 36221 ft 496 kts 92°
2026-05-01 08:52 41.33528 0.94116 36217 ft 497 kts 93°
2026-05-01 08:52 41.33349 1.03305 36216 ft 497 kts 93°
2026-05-01 08:53 41.33165 1.12438 36216 ft 497 kts 93°
2026-05-01 08:53 41.32974 1.21633 36214 ft 498 kts 93°
2026-05-01 08:54 41.32771 1.30896 36217 ft 498 kts 93°
2026-05-01 08:54 41.32564 1.40037 36219 ft 498 kts 93°
2026-05-01 08:55 41.32349 1.49256 36222 ft 498 kts 93°
2026-05-01 08:55 41.32126 1.58459 36228 ft 498 kts 93°
2026-05-01 08:56 41.31897 1.67654 36225 ft 498 kts 94°
2026-05-01 08:56 41.31655 1.76882 36227 ft 498 kts 94°
2026-05-01 08:57 41.31410 1.86098 36231 ft 498 kts 94°
2026-05-01 08:57 41.31159 1.95302 36237 ft 498 kts 94°
2026-05-01 08:58 41.30899 2.04511 36235 ft 498 kts 94°
2026-05-01 08:58 41.30206 2.13649 36239 ft 496 kts 102°
2026-05-01 08:59 41.28818 2.22627 36235 ft 496 kts 104°
2026-05-01 08:59 41.27320 2.31573 36234 ft 496 kts 104°
2026-05-01 09:00 41.25813 2.40515 36229 ft 496 kts 104°
2026-05-01 09:00 41.24313 2.49450 36223 ft 496 kts 104°
2026-05-01 09:01 41.22812 2.58393 36213 ft 496 kts 104°
2026-05-01 09:01 41.21307 2.67327 36223 ft 495 kts 104°
2026-05-01 09:02 41.19805 2.76190 36222 ft 495 kts 104°
2026-05-01 09:02 41.18287 2.85105 36226 ft 495 kts 104°
2026-05-01 09:03 41.16763 2.94006 36222 ft 494 kts 104°
2026-05-01 09:03 41.15224 3.02951 36225 ft 494 kts 104°
2026-05-01 09:04 41.13699 3.11779 36225 ft 494 kts 104°
2026-05-01 09:04 41.12155 3.20666 36224 ft 495 kts 104°
2026-05-01 09:05 41.10603 3.29554 36223 ft 495 kts 104°
2026-05-01 09:05 41.09044 3.38443 36220 ft 495 kts 104°
2026-05-01 09:06 41.07477 3.47334 36222 ft 495 kts 104°
2026-05-01 09:06 41.05904 3.56214 36216 ft 495 kts 104°
2026-05-01 09:07 41.04324 3.65100 36213 ft 496 kts 104°
2026-05-01 09:07 41.02735 3.73985 36216 ft 496 kts 104°
2026-05-01 09:08 41.01139 3.82874 36215 ft 496 kts 104°
2026-05-01 09:08 40.99537 3.91753 36210 ft 496 kts 104°
2026-05-01 09:09 40.97920 4.00632 36217 ft 496 kts 104°
2026-05-01 09:09 40.96306 4.09456 36216 ft 497 kts 104°
2026-05-01 09:10 40.94677 4.18339 36210 ft 497 kts 104°
2026-05-01 09:10 40.93040 4.27222 36215 ft 497 kts 104°
2026-05-01 09:11 40.91395 4.36108 36212 ft 498 kts 104°
2026-05-01 09:11 40.89744 4.44988 36206 ft 498 kts 104°
2026-05-01 09:12 40.88091 4.53876 36208 ft 498 kts 104°
2026-05-01 09:12 40.86429 4.62766 36213 ft 499 kts 105°
2026-05-01 09:13 40.85225 4.71798 36209 ft 500 kts 98°
2026-05-01 09:13 40.84352 4.80904 36205 ft 500 kts 97°
2026-05-01 09:14 40.83523 4.90022 36211 ft 500 kts 97°
2026-05-01 09:14 40.82680 4.99146 36212 ft 501 kts 97°
2026-05-01 09:15 40.81819 5.08275 36217 ft 501 kts 97°
2026-05-01 09:15 40.80947 5.17403 36209 ft 502 kts 97°
2026-05-01 09:16 40.80066 5.26545 36221 ft 502 kts 97°
2026-05-01 09:17 40.78736 5.40202 36211 ft 503 kts 98°
2026-05-01 09:17 40.77382 5.53940 36219 ft 504 kts 98°
2026-05-01 09:18 40.76009 5.67698 36218 ft 505 kts 98°
2026-05-01 09:19 40.74617 5.81479 36218 ft 506 kts 98°
2026-05-01 09:20 40.73207 5.95278 36226 ft 507 kts 98°
2026-05-01 09:21 40.71293 6.13708 36226 ft 508 kts 98°
2026-05-01 09:21 40.69834 6.27552 36234 ft 509 kts 98°
2026-05-01 09:22 40.67860 6.46048 36235 ft 510 kts 98°
2026-05-01 09:23 40.66356 6.59945 36232 ft 511 kts 98°
2026-05-01 09:24 40.64840 6.73799 36228 ft 512 kts 98°
2026-05-01 09:25 40.62777 6.92395 36238 ft 514 kts 98°
2026-05-01 09:26 40.61209 7.06350 36230 ft 515 kts 98°
2026-05-01 09:26 40.59620 7.20337 36230 ft 516 kts 98°
2026-05-01 09:27 40.58012 7.34333 36231 ft 516 kts 98°
2026-05-01 09:28 40.56932 7.43666 36231 ft 517 kts 98°
2026-05-01 09:28 40.56830 7.53065 36235 ft 514 kts 83°
2026-05-01 09:29 40.57969 7.67080 36231 ft 514 kts 81°
2026-05-01 09:30 40.59218 7.81084 36235 ft 514 kts 81°
2026-05-01 09:30 40.60407 7.95102 36225 ft 514 kts 81°
2026-05-01 09:31 40.61186 8.04441 36218 ft 514 kts 81°
2026-05-01 09:32 40.62339 8.18460 36209 ft 513 kts 81°
2026-05-01 09:32 40.63898 8.27545 36212 ft 506 kts 66°
2026-05-01 09:32 40.65147 8.31864 36212 ft 505 kts 64°
2026-05-01 09:33 40.67823 8.40420 36216 ft 505 kts 63°
2026-05-01 09:34 40.71901 8.53198 36222 ft 505 kts 63°
2026-05-01 09:34 40.75913 8.65972 36234 ft 505 kts 63°
2026-05-01 09:35 40.79919 8.78841 36242 ft 505 kts 63°
2026-05-01 09:36 40.82583 8.87429 36246 ft 506 kts 63°
2026-05-01 09:36 40.85243 8.96028 36251 ft 506 kts 63°
2026-05-01 09:37 40.87894 9.04628 36255 ft 506 kts 63°
2026-05-01 09:37 40.91865 9.17557 36272 ft 506 kts 63°
2026-05-01 09:38 40.95376 9.29040 36285 ft 507 kts 63°
2026-05-01 09:39 40.99337 9.42058 36291 ft 509 kts 62°
2026-05-01 09:39 41.01967 9.50742 36288 ft 507 kts 62°
2026-05-01 09:40 41.05894 9.63751 36258 ft 506 kts 62°
2026-05-01 09:40 41.07194 9.68077 36037 ft 506 kts 62°
2026-05-01 09:41 41.08495 9.72406 35794 ft 507 kts 62°
2026-05-01 09:41 41.11098 9.81109 35221 ft 507 kts 62°
2026-05-01 09:41 41.12382 9.85457 34561 ft 507 kts 62°
2026-05-01 09:42 41.13668 9.89828 33740 ft 509 kts 62°
2026-05-01 09:42 41.14951 9.94198 33150 ft 506 kts 62°
2026-05-01 09:42 41.17473 10.02815 32102 ft 496 kts 62°
2026-05-01 09:43 41.19971 10.11261 31057 ft 488 kts 62°
2026-05-01 09:43 41.21214 10.15441 30539 ft 484 kts 62°
2026-05-01 09:43 41.22445 10.19585 29987 ft 480 kts 62°
2026-05-01 09:44 41.24861 10.27761 28990 ft 470 kts 62°
2026-05-01 09:44 41.26046 10.31786 28498 ft 465 kts 62°
2026-05-01 09:44 41.27216 10.35766 28014 ft 460 kts 62°
2026-05-01 09:45 41.28373 10.39707 27553 ft 455 kts 62°
2026-05-01 09:45 41.30649 10.47474 26608 ft 446 kts 62°
2026-05-01 09:45 41.31754 10.51251 26170 ft 442 kts 62°
2026-05-01 09:46 41.32863 10.55048 25718 ft 438 kts 62°
2026-05-01 09:46 41.33960 10.58809 25268 ft 434 kts 62°
2026-05-01 09:46 41.35046 10.62538 24816 ft 430 kts 62°
2026-05-01 09:46 41.36122 10.66239 24371 ft 427 kts 62°
2026-05-01 09:47 41.37187 10.69904 23929 ft 423 kts 62°
2026-05-01 09:47 41.38242 10.73542 23436 ft 419 kts 62°
2026-05-01 09:47 41.39284 10.77145 22986 ft 414 kts 62°
2026-05-01 09:47 41.40310 10.80698 22548 ft 408 kts 62°
2026-05-01 09:48 41.41323 10.84207 22109 ft 404 kts 63°
2026-05-01 09:48 41.42324 10.87682 21673 ft 399 kts 63°
2026-05-01 09:48 41.43312 10.91113 21242 ft 395 kts 63°
2026-05-01 09:48 41.44290 10.94512 20810 ft 391 kts 63°
2026-05-01 09:49 41.45258 10.97883 20378 ft 387 kts 63°
2026-05-01 09:49 41.46216 11.01220 19943 ft 384 kts 63°
2026-05-01 09:49 41.47163 11.04526 19510 ft 381 kts 63°
2026-05-01 09:49 41.48104 11.07813 19095 ft 378 kts 63°
2026-05-01 09:50 41.49028 11.11074 18667 ft 375 kts 63°
2026-05-01 09:50 41.49939 11.14317 18202 ft 372 kts 63°
2026-05-01 09:50 41.50842 11.17529 17753 ft 368 kts 63°
2026-05-01 09:50 41.51734 11.20707 17315 ft 364 kts 63°
2026-05-01 09:51 41.52618 11.23860 16881 ft 361 kts 64°
2026-05-01 09:51 41.53490 11.26974 16559 ft 354 kts 64°
2026-05-01 09:51 41.54265 11.30030 16496 ft 345 kts 69°
2026-05-01 09:51 41.54629 11.33297 16508 ft 369 kts 83°
2026-05-01 09:52 41.54327 11.36772 16327 ft 384 kts 97°
2026-05-01 09:52 41.53629 11.40202 15956 ft 381 kts 101°
2026-05-01 09:52 41.52869 11.43581 15445 ft 380 kts 101°
2026-05-01 09:52 41.52108 11.46946 14904 ft 378 kts 101°
2026-05-01 09:53 41.51352 11.50296 14359 ft 377 kts 101°
2026-05-01 09:53 41.50599 11.53646 13780 ft 375 kts 101°
2026-05-01 09:53 41.49851 11.56968 13211 ft 373 kts 102°
2026-05-01 09:53 41.49109 11.60264 12669 ft 369 kts 102°
2026-05-01 09:54 41.48382 11.63491 12121 ft 366 kts 102°
2026-05-01 09:54 41.47652 11.66728 11593 ft 363 kts 102°
2026-05-01 09:54 41.46926 11.69941 11067 ft 360 kts 102°
2026-05-01 09:54 41.46214 11.73077 10918 ft 346 kts 102°
2026-05-01 09:55 41.45531 11.76078 10785 ft 332 kts 102°
2026-05-01 09:55 41.44866 11.79001 10658 ft 318 kts 102°
2026-05-01 09:55 41.44236 11.81771 10530 ft 306 kts 101°
2026-05-01 09:55 41.43630 11.84442 10300 ft 299 kts 101°
2026-05-01 09:56 41.43039 11.87056 9882 ft 298 kts 102°
2026-05-01 09:56 41.42443 11.89691 9516 ft 295 kts 102°
2026-05-01 09:56 41.41858 11.92255 9363 ft 284 kts 102°
2026-05-01 09:56 41.41292 11.94724 9221 ft 274 kts 102°
2026-05-01 09:57 41.40747 11.97100 9064 ft 265 kts 102°
2026-05-01 09:57 41.40216 11.99429 8786 ft 261 kts 102°
2026-05-01 09:57 41.39693 12.01729 8487 ft 258 kts 102°
2026-05-01 09:57 41.39217 12.03986 8351 ft 252 kts 108°
2026-05-01 09:58 41.38355 12.06151 8296 ft 271 kts 117°
2026-05-01 09:58 41.37386 12.08248 8202 ft 261 kts 118°
2026-05-01 09:58 41.36439 12.10257 8086 ft 252 kts 118°
2026-05-01 09:58 41.35524 12.12196 7886 ft 247 kts 118°
2026-05-01 09:59 41.34601 12.14164 7668 ft 253 kts 118°
2026-05-01 09:59 41.33668 12.16150 7424 ft 253 kts 119°
2026-05-01 09:59 41.32734 12.18131 7174 ft 252 kts 119°
2026-05-01 09:59 41.31806 12.20100 6997 ft 250 kts 119°
2026-05-01 10:00 41.30880 12.22061 6843 ft 250 kts 119°
2026-05-01 10:00 41.29956 12.24017 6737 ft 249 kts 120°
2026-05-01 10:00 41.29036 12.25968 6550 ft 249 kts 120°
2026-05-01 10:00 41.28193 12.27967 6291 ft 247 kts 109°
2026-05-01 10:01 41.27960 12.30175 6040 ft 240 kts 79°
2026-05-01 10:01 41.28355 12.32311 5782 ft 238 kts 69°
2026-05-01 10:01 41.28867 12.34402 5602 ft 239 kts 69°
2026-05-01 10:01 41.29384 12.36504 5406 ft 239 kts 69°
2026-05-01 10:02 41.29971 12.38559 5143 ft 236 kts 58°
2026-05-01 10:02 41.31058 12.40113 4957 ft 229 kts 27°
2026-05-01 10:02 41.32558 12.40660 4825 ft 224 kts 357°
2026-05-01 10:02 41.34074 12.40280 4690 ft 223 kts 342°
2026-05-01 10:03 41.35553 12.39649 4570 ft 223 kts 341°
2026-05-01 10:03 41.37032 12.39003 4422 ft 224 kts 341°
2026-05-01 10:03 41.38515 12.38368 4308 ft 224 kts 341°
2026-05-01 10:03 41.39911 12.37784 4259 ft 224 kts 342°
2026-05-01 10:04 41.41434 12.37146 4231 ft 223 kts 342°
2026-05-01 10:04 41.42919 12.36526 4209 ft 224 kts 342°
2026-05-01 10:04 41.44404 12.35908 4173 ft 223 kts 342°
2026-05-01 10:04 41.45888 12.35291 4147 ft 224 kts 342°
2026-05-01 10:05 41.47354 12.34683 4119 ft 224 kts 342°
2026-05-01 10:05 41.48843 12.34067 4089 ft 224 kts 342°
2026-05-01 10:05 41.50330 12.33451 4049 ft 224 kts 342°
2026-05-01 10:05 41.51825 12.32857 3992 ft 224 kts 346°
2026-05-01 10:06 41.53373 12.32801 3941 ft 225 kts 13°
2026-05-01 10:06 41.54819 12.33579 3885 ft 223 kts 26°
2026-05-01 10:06 41.56169 12.34518 3837 ft 216 kts 26°
2026-05-01 10:06 41.57497 12.35446 3786 ft 214 kts 26°
2026-05-01 10:07 41.58844 12.36213 3741 ft 210 kts 12°
2026-05-01 10:07 41.60293 12.36230 3680 ft 210 kts 350°
2026-05-01 10:07 41.61686 12.35730 3603 ft 203 kts 342°
2026-05-01 10:07 41.62986 12.35165 3513 ft 189 kts 343°
2026-05-01 10:08 41.65344 12.34177 3286 ft 166 kts 344°
2026-05-01 10:08 41.66416 12.33743 3077 ft 156 kts 344°
2026-05-01 10:08 41.67423 12.33328 2866 ft 148 kts 344°
2026-05-01 10:09 41.68403 12.32917 2673 ft 147 kts 344°
2026-05-01 10:09 41.69377 12.32511 2463 ft 147 kts 345°
2026-05-01 10:09 41.70354 12.32102 2272 ft 147 kts 345°
2026-05-01 10:09 41.71315 12.31701 2089 ft 141 kts 345°
2026-05-01 10:10 41.72261 12.31302 1854 ft 144 kts 345°
2026-05-01 10:10 41.73191 12.30917 1711 ft 138 kts 345°
2026-05-01 10:10 41.74789 12.30247 1396 ft 141 kts 344°
2026-05-01 10:11 41.75721 12.29861 1190 ft 139 kts 345°
2026-05-01 10:11 41.76630 12.29480 1012 ft 135 kts 344°
2026-05-01 10:11 41.77523 12.29106 830 ft 134 kts 345°
2026-05-01 10:11 41.78415 12.28734 644 ft 134 kts 345°
2026-05-01 10:12 41.79310 12.28360 457 ft 134 kts 343°
2026-05-01 10:12 41.79900 12.28113 329 ft 134 kts 343°
2026-05-01 10:12 41.81965 12.27248 23 ft 124 kts 344°
2026-05-01 10:13 41.82609 12.26983 18 ft 58 kts 343°
2026-05-01 10:13 41.82878 12.26871 19 ft 20 kts 341°
2026-05-01 10:13 41.82983 12.26819 18 ft 17 kts 334°
2026-05-01 10:14 41.83180 12.26595 17 ft 17 kts 312°
2026-05-01 10:14 41.83240 12.26472 18 ft 13 kts 279°
2026-05-01 10:14 41.83215 12.26418 19 ft 7 kts 207°
2026-05-01 10:14 41.83163 12.26426 18 ft 11 kts 162°
2026-05-01 10:15 41.83063 12.26469 17 ft 18 kts 162°
2026-05-01 10:15 41.82935 12.26524 17 ft 20 kts 162°
2026-05-01 10:15 41.82794 12.26583 17 ft 21 kts 163°
2026-05-01 10:15 41.82646 12.26643 17 ft 23 kts 162°
2026-05-01 10:16 41.82486 12.26711 17 ft 25 kts 162°
2026-05-01 10:16 41.82316 12.26784 17 ft 27 kts 162°
2026-05-01 10:16 41.81961 12.26931 17 ft 26 kts 162°
2026-05-01 10:17 41.81781 12.27006 18 ft 28 kts 162°
2026-05-01 10:17 41.81449 12.27146 18 ft 24 kts 162°
2026-05-01 10:17 41.81283 12.27216 18 ft 24 kts 162°
2026-05-01 10:18 41.80993 12.27335 19 ft 21 kts 163°
2026-05-01 10:18 41.80878 12.27346 19 ft 15 kts 190°
2026-05-01 10:18 41.80770 12.27318 19 ft 17 kts 191°
2026-05-01 10:19 41.80666 12.27250 19 ft 17 kts 234°
2026-05-01 10:19 41.80619 12.27094 19 ft 19 kts 250°
2026-05-01 10:19 41.80574 12.26924 19 ft 20 kts 249°
2026-05-01 10:20 41.80471 12.26552 21 ft 23 kts 250°
2026-05-01 10:20 41.80415 12.26346 23 ft 24 kts 249°
2026-05-01 10:20 41.80354 12.26129 21 ft 26 kts 249°
2026-05-01 10:20 41.80291 12.25898 20 ft 27 kts 249°
2026-05-01 10:21 41.80224 12.25657 20 ft 28 kts 250°
2026-05-01 10:21 41.80134 12.25331 20 ft 19 kts 250°
2026-05-01 10:21 41.80095 12.25152 20 ft 21 kts 263°
2026-05-01 10:22 41.80093 12.24829 20 ft 13 kts 244°
2026-05-01 10:22 41.79976 12.24714 20 ft 11 kts 257°
2026-05-01 10:23 41.79940 12.24628 20 ft 10 kts 212°
2026-05-01 10:23 41.79905 12.24625 20 ft 0 kts 165°
2026-05-01 10:23 41.79904 12.24626 20 ft 0 kts 162°
2026-05-01 10:24 41.79854 12.24651 20 ft 2 kts 159°
2026-05-01 10:24 41.79848 12.24654 20 ft 0 kts 159°